Regional Weather Roundup
Issued by NWS

Home | Current Version | Previous Version | Graphics & Text | Print | Product List | Glossary Off
Versions: 1 2 3 4 5 6 7 8 9 10 11 12 13 14 15 16 17 18 19 20 21 22 23 24 25 26 27 28 29 30 31 32 33 34 35 36 37 38 39 40 41 42 43 44 45 46 47 48 49 50

000
ASUS43 KMKX 291100
RWRWI

WISCONSIN REGIONAL WEATHER ROUNDUP
NATIONAL WEATHER SERVICE MILWAUKEE/SULLIVAN WI
500 AM CST MON DEC 29 2014

NOTE: "FAIR" INDICATES FEW OR NO CLOUDS BELOW 12,000 FEET WITH NO
SIGNIFICANT WEATHER AND/OR OBSTRUCTIONS TO VISIBILITY.

WIZ001-002-006>008-014>016-023>028-291200-
NORTHWEST WISCONSIN

CITY           SKY/WX    TMP DP  RH WIND       PRES   REMARKS
SUPERIOR ARPT  CLEAR     -1  -8  74 NW3       30.48S
ASHLAND        CLOUDY     2  -2  83 W6        30.43R WCI  -9
HAYWARD        MOCLDY   -12 -17  78 CALM      30.39S
SIREN          CLEAR     -3  -7  81 N3        30.43S
CUMBERLAND     PTCLDY     0  -8  71 N9        30.38R WCI -16
RICE LAKE      PTCLDY     1  -6  74 NW5       30.41S WCI  -9
CHETEK         PTCLDY    -2  -6  84 CALM      30.39S
LADYSMITH      PTCLDY    -4  -8  82 NW7       30.38S WCI -18
EAU CLAIRE     NOT AVBL
MENOMONIE      PTCLDY     4  -4  70 NW7       30.41S WCI  -8
NEW RICHMOND   CLOUDY     2  -4  74 N6        30.42S WCI  -9
OSCEOLA        PTCLDY     2  -4  75 N8        30.47R WCI -11
$$

WIZ003>005-009-010-017-018-291200-
NORTH CENTRAL WISCONSIN

CITY           SKY/WX    TMP DP  RH WIND       PRES   REMARKS
MANITOWISH WTR FLURRIES  -5  -8  84 CALM      30.29S
ARBOR VITAE    CLOUDY     0  -4  82 NW3       30.29S
WOODRUFF       CLOUDY     0  -4  82 NW3       30.29S
RHINELANDER    PTCLDY    -3  -6  87 NW5       30.29S WCI -13
EAGLE RIVER    FLURRIES  -2  -6  80 CALM      30.27S
LAND O LAKES   FLURRIES   5   1  85 CALM      30.27R
PHILLIPS       CLEAR    -17 -22  79 CALM      30.33S
TOMAHAWK       PTCLDY   -11 -15  81 CALM      30.32S
MEDFORD        PTCLDY   N/A N/A N/A N5        30.31S
MERRILL        PTCLDY    -4  -8  84 CALM      30.32S
$$

WIZ029-030-035-036-043>047-291200-
CENTRAL WISCONSIN

CITY           SKY/WX    TMP DP  RH WIND       PRES   REMARKS
WAUSAU         MOCLDY     1  -3  83 W5        30.33R WCI  -9
MOSINEE        CLOUDY     3   1  92 CALM      30.34R
MARSHFIELD     MOCLDY     5   0  79 N6        30.34S WCI  -6
STEVENS POINT  CLOUDY     6   1  83 N5        30.34S WCI  -3
WAUPACA        MOCLDY    14   7  73 NW7       30.36F WCI   4
WAUTOMA        NOT AVBL
WISC RAPIDS    CLOUDY    10   3  73 N8        30.37R WCI  -2
CAMP DOUGLAS   NOT AVBL
$$

WIZ011>013-019>022-031-037>040-048>050-291200-
NORTHEAST WISCONSIN

CITY           SKY/WX    TMP DP  RH WIND       PRES   REMARKS
ANTIGO         MOCLDY    -2  -4  87 NW6       30.29S WCI -14
SHAWANO        PTCLDY    11   6  80 W3        30.36S
OCONTO         PTCLDY    12   7  79 NW5       30.35S WCI   4
STURGEON BAY   PTCLDY    16   7  67 NW10      30.34S WCI   3
GREEN BAY      PTCLDY    15   8  73 NW9       30.35S WCI   3
MANITOWOC      NOT AVBL
APPLETON       NOT AVBL
CLINTONVILLE   MOCLDY    12   5  73 NW6       30.35S WCI   3
OSHKOSH        CLOUDY    16   6  65 N10       30.33S WCI   4
$$

WIZ032>034-041-042-053>061-291200-
SOUTHWEST WISCONSIN

CITY           SKY/WX    TMP DP  RH WIND       PRES   REMARKS
LA CROSSE      PTCLDY    14   8  77 N10       30.40R WCI   1
SPARTA         MOCLDY    12   8  82 N5        30.39R WCI   4
VIROQUA        CLOUDY    16  13  89 N9        30.31S WCI   4
BOSCOBEL       CLOUDY    21  12  68 N6        30.35R WCI  13
PRAIRIE DU CHI CLOUDY    22  13  67 N5        30.34R WCI  16
PLATTEVILLE    CLOUDY    22  17  80 CALM      30.31R
$$

WIZ056-057-062-063-064-067-068-291200-
SOUTH CENTRAL WISCONSIN

CITY           SKY/WX    TMP DP  RH WIND       PRES   REMARKS
REEDSBURG      CLOUDY    17  11  78 N6        30.34R WCI   8
BARABOO/DELLS  CLOUDY    17  11  80 N5        30.33S WCI   9
LONE ROCK      NOT AVBL
MINERAL POINT  CLOUDY    23  16  74 N7        30.29S WCI  15
MADISON        CLOUDY    19  13  77 N9        30.32S WCI   8
MIDDLETON      CLOUDY    22  14  71 NE8       30.32S WCI  12
WATERTOWN      CLOUDY    19  17  89 N6        30.31R WCI  11
MONROE         CLOUDY    23  18  80 N10       30.28S WCI  12
JANESVILLE     CLOUDY    27  19  74 N3        30.30S
$$

WIZ051-052-058>065-066-070>072-291200-
SOUTHEAST WISCONSIN

CITY           SKY/WX    TMP DP  RH WIND       PRES   REMARKS
MILWAUKEE      MOCLDY    23  15  71 N8        30.31R WCI  14
WAUKESHA       PTCLDY    19  14  79 N5        30.31R WCI  13
MILWAUKEE/TIMM MOCLDY    21  14  73 N9        30.32R WCI  11
RACINE         MOCLDY    24  17  74 NW7       30.31S WCI  16
BURLINGTON     PTCLDY    21  17  83 N5        30.29S WCI  15
KENOSHA        MOCLDY    24  18  77 N8        30.29S WCI  15
FOND DU LAC    CLOUDY    17   6  62 N12       30.33R WCI   4
SHEBOYGAN      MOCLDY    17   7  64 N8        30.32S WCI   7
WEST BEND      MOCLDY    19  10  68 N6        30.31R WCI  11
JUNEAU         CLOUDY    17  11  78 N7        30.32S WCI   8
$$

LSZ147-162-291200-
LAKE SUPERIOR

STATION/POSITION TIME  TEMP    WIND        PRES    WAVE
                       AIR SEA DIR/SP/G            HT/PER
                 (UTC) (F)     (DEG/KT/KT) (MB)    (FT/S)
DEVILS ISLAND    1000    7     330/ 13/ 17 1031.7R
PORT WING        1000    6     320/ 10/ 14 1031.2R
SAXON HARBOR     1040    7     230/  4/  9 1029.8R
$$

LMZ867-665-643>646-291200-
LAKE MICHIGAN

STATION/POSITION TIME  TEMP    WIND        PRES    WAVE
                       AIR SEA DIR/SP/G            HT/PER
                 (UTC) (F)     (DEG/KT/KT) (MB)    (FT/S)
CHAMBERS ISLAND  1000   13     270/  6/ 10 1027.1R
NORTHPORT PIER   1011   18     320/ 13/ 19 1026.4R
SISTER BAY       1013          320/ 16/ 18   N/A
ALGOMA LAKESHORE 0945          330/ 10/ 12   N/A
KEWAUNEE LAKESHO 1000   16     310/  3/  7 1026.4R
SHEBOYGAN LAKESH 1000   18 36  310/  9/ 11 1028.3R
PORT WASHINGTON  1040   20     360/  4/  8 1027.8R
MILWAUKEE LAKESH 1000   24     330/  7/ 10   N/A
KENOSHA   LAKESH 1000   27     350/ 13/ 17 1025.4S
$$

TC  - TEMPERATURE IN CELSIUS
VSB - VISIBILITY IN STATUTE MILES
WCI - WIND CHILL INDEX
HX  - HEAT INDEX



USA.gov is the U.S. government's official web portal to all federal, state and local government web resources and services.